Time,TemperatureF,DewpointF,PressureIn,WindDirection,WindDirectionDegrees,WindSpeedMPH,WindSpeedGustMPH,Humidity,HourlyPrecipIn,Conditions,Clouds,dailyrainin,SoftwareType,DateUTC
2013-02-22 00:09:00,23.4,6.1,30.29,ESE,122,0.0,3.0,47,0.00,CLR,,0.00,WeatherDisplay:10.37,2013-02-22 05:09:00,
2013-02-22 00:19:00,23.9,6.6,30.29,WSW,241,0.0,0.0,47,0.00,CLR,,0.00,WeatherDisplay:10.37,2013-02-22 05:19:00,
2013-02-22 00:29:00,23.7,6.4,30.32,ENE,60,0.0,0.0,47,0.00,CLR,,0.00,WeatherDisplay:10.37,2013-02-22 05:29:00,
2013-02-22 00:39:00,24.1,6.7,30.32,SSE,149,0.0,0.0,47,0.00,CLR,,0.00,WeatherDisplay:10.37,2013-02-22 05:39:00,
2013-02-22 00:49:00,24.3,6.9,30.32,SSE,149,0.0,0.0,47,0.00,CLR,,0.00,WeatherDisplay:10.37,2013-02-22 05:49:00,
2013-02-22 00:59:00,24.2,6.3,30.32,SSE,149,0.0,0.0,46,0.00,CLR,,0.00,WeatherDisplay:10.37,2013-02-22 05:59:00,
2013-02-22 01:09:00,24.1,6.3,30.32,ENE,66,0.0,0.0,46,0.00,CLR,,0.00,WeatherDisplay:10.37,2013-02-22 06:09:00,
2013-02-22 01:19:00,24.2,6.9,30.32,East,83,0.0,0.0,47,0.00,CLR,,0.00,WeatherDisplay:10.37,2013-02-22 06:19:00,
2013-02-22 01:29:00,24.6,7.2,30.32,ESE,110,0.0,0.0,47,0.00,CLR,,0.00,WeatherDisplay:10.37,2013-02-22 06:29:00,
2013-02-22 01:39:00,24.3,6.4,30.29,ESE,110,0.0,0.0,46,0.00,CLR,,0.00,WeatherDisplay:10.37,2013-02-22 06:39:00,
2013-02-22 01:49:00,24.1,6.3,30.29,South,183,0.0,0.0,46,0.00,CLR,,0.00,WeatherDisplay:10.37,2013-02-22 06:49:00,
2013-02-22 01:59:00,23.9,6.1,30.32,SSW,213,0.0,0.0,46,0.00,CLR,,0.00,WeatherDisplay:10.37,2013-02-22 06:59:00,
2013-02-22 02:09:00,23.9,6.1,30.32,SSW,213,0.0,0.0,46,0.00,CLR,,0.00,WeatherDisplay:10.37,2013-02-22 07:09:00,
2013-02-22 02:19:00,24.1,6.7,30.32,ESE,113,0.0,0.0,47,0.00,CLR,,0.00,WeatherDisplay:10.37,2013-02-22 07:19:00,
2013-02-22 02:29:00,24.3,6.9,30.34,East,99,0.0,0.0,47,0.00,CLR,,0.00,WeatherDisplay:10.37,2013-02-22 07:29:00,
2013-02-22 02:39:00,24.4,7.1,30.34,East,99,0.0,0.0,47,0.00,CLR,,0.00,WeatherDisplay:10.37,2013-02-22 07:39:00,
2013-02-22 02:49:00,24.6,7.2,30.34,SSE,164,0.0,0.0,47,0.00,CLR,,0.00,WeatherDisplay:10.37,2013-02-22 07:49:00,
2013-02-22 02:59:00,24.8,7.4,30.34,SSE,167,0.0,0.0,47,0.00,CLR,,0.00,WeatherDisplay:10.37,2013-02-22 07:59:00,
2013-02-22 03:09:00,24.8,6.9,30.34,SSE,167,0.0,0.0,46,0.00,CLR,,0.00,WeatherDisplay:10.37,2013-02-22 08:09:00,
2013-02-22 03:19:00,24.6,6.8,30.34,SSE,168,0.0,0.0,46,0.00,CLR,,0.00,WeatherDisplay:10.37,2013-02-22 08:19:00,
2013-02-22 03:29:00,25.0,7.6,30.34,South,189,0.0,3.0,47,0.00,CLR,,0.00,WeatherDisplay:10.37,2013-02-22 08:29:00,
2013-02-22 03:39:00,25.3,7.4,30.38,South,183,0.0,3.0,46,0.00,CLR,,0.00,WeatherDisplay:10.37,2013-02-22 08:39:00,
2013-02-22 03:49:00,25.3,7.4,30.38,SSW,198,0.0,0.0,46,0.00,CLR,,0.00,WeatherDisplay:10.37,2013-02-22 08:49:00,
2013-02-22 03:59:00,25.5,7.1,30.38,SSE,159,0.0,0.0,45,0.00,CLR,,0.00,WeatherDisplay:10.37,2013-02-22 08:59:00,
2013-02-22 04:09:00,25.5,7.1,30.34,South,177,0.0,0.0,45,0.00,CLR,,0.00,WeatherDisplay:10.37,2013-02-22 09:09:00,
2013-02-22 04:19:00,25.3,6.4,30.34,East,92,0.0,0.0,44,0.00,CLR,,0.00,WeatherDisplay:10.37,2013-02-22 09:19:00,
2013-02-22 04:29:00,25.5,6.6,30.34,East,92,0.0,0.0,44,0.00,CLR,,0.00,WeatherDisplay:10.37,2013-02-22 09:29:00,
2013-02-22 04:39:00,25.5,6.6,30.34,East,89,0.0,0.0,44,0.00,CLR,,0.00,WeatherDisplay:10.37,2013-02-22 09:39:00,
2013-02-22 04:49:00,25.5,6.6,30.34,East,90,0.0,0.0,44,0.00,CLR,,0.00,WeatherDisplay:10.37,2013-02-22 09:49:00,
2013-02-22 04:59:00,25.9,6.9,30.34,East,91,0.0,4.0,44,0.00,CLR,,0.00,WeatherDisplay:10.37,2013-02-22 09:59:00,
2013-02-22 05:09:00,26.2,6.7,30.34,East,95,0.0,4.0,43,0.00,CLR,,0.00,WeatherDisplay:10.37,2013-02-22 10:09:00,
2013-02-22 05:19:00,26.4,6.4,30.34,ESE,110,0.0,3.0,42,0.00,CLR,,0.00,WeatherDisplay:10.37,2013-02-22 10:19:00,
2013-02-22 05:29:00,26.6,6.6,30.34,ESE,110,3.0,5.0,42,0.00,CLR,,0.00,WeatherDisplay:10.37,2013-02-22 10:29:00,
2013-02-22 05:39:00,26.8,6.7,30.34,ESE,121,0.0,4.0,42,0.00,CLR,,0.00,WeatherDisplay:10.37,2013-02-22 10:39:00,
2013-02-22 05:49:00,26.8,6.7,30.34,SSE,168,0.0,0.0,42,0.00,CLR,,0.00,WeatherDisplay:10.37,2013-02-22 10:49:00,
2013-02-22 05:59:00,26.8,6.2,30.34,ESE,106,0.0,3.0,41,0.00,CLR,,0.00,WeatherDisplay:10.37,2013-02-22 10:59:00,
2013-02-22 06:09:00,26.8,6.2,30.34,ENE,74,0.0,2.0,41,0.00,CLR,,0.00,WeatherDisplay:10.37,2013-02-22 11:09:00,
2013-02-22 06:19:00,27.0,6.4,30.34,East,89,0.0,0.0,41,0.00,CLR,,0.00,WeatherDisplay:10.37,2013-02-22 11:19:00,
2013-02-22 06:29:00,26.9,6.3,30.32,NNE,22,3.0,5.0,41,0.00,CLR,,0.00,WeatherDisplay:10.37,2013-02-22 11:29:00,
2013-02-22 06:39:00,27.1,7.0,30.34,NW,324,0.0,4.0,42,0.00,CLR,,0.00,WeatherDisplay:10.37,2013-02-22 11:39:00,
2013-02-22 06:49:00,27.5,7.4,30.34,West,280,0.0,3.0,42,0.00,CLR,,0.00,WeatherDisplay:10.37,2013-02-22 11:49:00,
2013-02-22 06:59:00,27.5,6.8,30.34,NW,317,0.0,2.0,41,0.00,CLR,,0.00,WeatherDisplay:10.37,2013-02-22 11:59:00,
2013-02-22 07:09:00,27.3,6.7,30.34,NNE,25,0.0,3.0,41,0.00,CLR,,0.00,WeatherDisplay:10.37,2013-02-22 12:09:00,
2013-02-22 07:19:00,27.1,7.0,30.34,ENE,66,0.0,3.0,42,0.00,CLR,,0.00,WeatherDisplay:10.37,2013-02-22 12:19:00,
2013-02-22 07:29:00,27.1,7.0,30.34,East,88,0.0,3.0,42,0.00,CLR,,0.00,WeatherDisplay:10.37,2013-02-22 12:29:00,
2013-02-22 07:39:00,27.3,7.2,30.34,East,91,0.0,0.0,42,0.00,CLR,,0.00,WeatherDisplay:10.37,2013-02-22 12:39:00,
2013-02-22 07:49:00,27.5,7.4,30.34,East,91,0.0,0.0,42,0.00,CLR,,0.00,WeatherDisplay:10.37,2013-02-22 12:49:00,
2013-02-22 07:59:00,27.9,7.7,30.34,NW,315,0.0,0.0,42,0.00,CLR,,0.00,WeatherDisplay:10.37,2013-02-22 12:59:00,
2013-02-22 08:09:00,28.6,8.4,30.34,North,3,3.0,6.0,42,0.00,CLR,,0.00,WeatherDisplay:10.37,2013-02-22 13:09:00,
2013-02-22 08:19:00,29.3,8.5,30.34,East,97,0.0,6.0,41,0.00,CLR,,0.00,WeatherDisplay:10.37,2013-02-22 13:19:00,
2013-02-22 08:29:00,29.7,6.5,30.32,ESE,118,6.0,9.0,37,0.00,CLR,,0.00,WeatherDisplay:10.37,2013-02-22 13:29:00,
2013-02-22 08:39:00,29.7,5.9,30.32,East,99,9.0,13.0,36,0.00,CLR,,0.00,WeatherDisplay:10.37,2013-02-22 13:39:00,
2013-02-22 08:49:00,29.7,5.3,30.32,ESE,113,7.0,15.0,35,0.00,CLR,,0.00,WeatherDisplay:10.37,2013-02-22 13:49:00,
2013-02-22 08:59:00,29.7,5.3,30.32,SE,127,7.0,15.0,35,0.00,CLR,,0.00,WeatherDisplay:10.37,2013-02-22 13:59:00,
2013-02-22 09:09:00,29.7,4.7,30.32,ESE,104,9.0,13.0,34,0.00,CLR,,0.00,WeatherDisplay:10.37,2013-02-22 14:09:00,
2013-02-22 09:19:00,29.8,5.5,30.32,East,95,3.0,12.0,35,0.00,CLR,,0.00,WeatherDisplay:10.37,2013-02-22 14:19:00,
2013-02-22 09:29:00,30.0,5.0,30.29,SE,132,7.0,11.0,34,0.00,CLR,,0.00,WeatherDisplay:10.37,2013-02-22 14:29:00,
2013-02-22 09:39:00,29.8,5.5,30.29,ESE,113,8.0,14.0,35,0.00,CLR,,0.00,WeatherDisplay:10.37,2013-02-22 14:39:00,
2013-02-22 09:49:00,29.7,5.3,30.29,ESE,114,7.0,15.0,35,0.00,CLR,,0.00,WeatherDisplay:10.37,2013-02-22 14:49:00,
2013-02-22 09:59:00,29.5,5.1,30.29,ESE,118,5.0,13.0,35,0.00,CLR,,0.00,WeatherDisplay:10.37,2013-02-22 14:59:00,
2013-02-22 10:09:00,29.5,5.1,30.26,East,101,6.0,13.0,35,0.00,CLR,,0.00,WeatherDisplay:10.37,2013-02-22 15:09:00,
2013-02-22 10:19:00,29.3,5.6,30.26,East,101,7.0,12.0,36,0.00,CLR,,0.00,WeatherDisplay:10.37,2013-02-22 15:19:00,
2013-02-22 10:29:00,29.3,6.2,30.29,SE,129,3.0,9.0,37,0.00,CLR,,0.00,WeatherDisplay:10.37,2013-02-22 15:29:00,
2013-02-22 10:39:00,29.3,6.2,30.29,SE,136,5.0,9.0,37,0.00,CLR,,0.00,WeatherDisplay:10.37,2013-02-22 15:39:00,
2013-02-22 10:49:00,29.3,6.8,30.29,ESE,123,6.0,8.0,38,0.00,CLR,,0.00,WeatherDisplay:10.37,2013-02-22 15:49:00,
2013-02-22 10:59:00,29.3,6.8,30.32,ESE,104,5.0,8.0,38,0.00,CLR,,0.00,WeatherDisplay:10.37,2013-02-22 15:59:00,
2013-02-22 11:09:00,29.5,7.5,30.32,ESE,120,6.0,9.0,39,0.00,CLR,,0.00,WeatherDisplay:10.37,2013-02-22 16:09:00,
2013-02-22 11:19:00,29.7,8.3,30.32,SSE,148,5.0,9.0,40,0.00,CLR,,0.00,WeatherDisplay:10.37,2013-02-22 16:19:00,
2013-02-22 11:29:00,29.8,9.0,30.32,SE,139,6.0,8.0,41,0.00,CLR,,0.00,WeatherDisplay:10.37,2013-02-22 16:29:00,
2013-02-22 11:39:00,30.0,9.1,30.32,SE,134,3.0,8.0,41,0.00,CLR,,0.00,WeatherDisplay:10.37,2013-02-22 16:39:00,
2013-02-22 11:49:00,30.2,9.3,30.32,SSE,155,5.0,8.0,41,0.00,CLR,,0.00,WeatherDisplay:10.37,2013-02-22 16:49:00,
2013-02-22 11:59:00,30.4,9.5,30.32,SSE,157,2.0,9.0,41,0.00,CLR,,0.00,WeatherDisplay:10.37,2013-02-22 16:59:00,
2013-02-22 12:09:00,30.4,10.0,30.32,SE,139,5.0,8.0,42,0.00,CLR,,0.00,WeatherDisplay:10.37,2013-02-22 17:09:00,
2013-02-22 12:19:00,30.6,10.2,30.32,SE,143,2.0,6.0,42,0.00,CLR,,0.00,WeatherDisplay:10.37,2013-02-22 17:19:00,
2013-02-22 12:29:00,30.4,11.0,30.32,SE,142,2.0,8.0,44,0.00,CLR,,0.00,WeatherDisplay:10.37,2013-02-22 17:29:00,
2013-02-22 12:39:00,30.2,12.4,30.29,SE,135,3.0,9.0,47,0.00,CLR,,0.00,WeatherDisplay:10.37,2013-02-22 17:39:00,
2013-02-22 12:49:00,30.2,13.3,30.29,SSE,158,5.0,8.0,49,0.00,CLR,,0.00,WeatherDisplay:10.37,2013-02-22 17:49:00,
2013-02-22 12:59:00,30.2,14.2,30.29,ESE,122,5.0,8.0,51,0.00,CLR,,0.00,WeatherDisplay:10.37,2013-02-22 17:59:00,
2013-02-22 13:09:00,30.3,14.8,30.29,SE,126,5.0,6.0,52,0.00,CLR,,0.00,WeatherDisplay:10.37,2013-02-22 18:09:00,
2013-02-22 13:19:00,30.4,15.3,30.29,SE,133,3.0,8.0,53,0.00,CLR,,0.00,WeatherDisplay:10.37,2013-02-22 18:19:00,
2013-02-22 13:29:00,30.2,15.5,30.29,SE,124,6.0,8.0,54,0.00,CLR,,0.00,WeatherDisplay:10.37,2013-02-22 18:29:00,
2013-02-22 13:39:00,30.2,16.4,30.26,SE,137,7.0,8.0,56,0.00,CLR,,0.00,WeatherDisplay:10.37,2013-02-22 18:39:00,
2013-02-22 13:49:00,30.0,16.2,30.26,ESE,111,6.0,8.0,56,0.00,CLR,,0.00,WeatherDisplay:10.37,2013-02-22 18:49:00,
2013-02-22 13:59:00,30.2,16.8,30.26,SE,139,0.0,6.0,57,0.00,CLR,,0.00,WeatherDisplay:10.37,2013-02-22 18:59:00,
2013-02-22 14:09:00,30.0,17.0,30.26,SE,133,3.0,11.0,58,0.00,CLR,,0.00,WeatherDisplay:10.37,2013-02-22 19:09:00,
2013-02-22 14:19:00,29.8,16.8,30.26,SE,139,5.0,11.0,58,0.00,CLR,,0.00,WeatherDisplay:10.37,2013-02-22 19:19:00,
2013-02-22 14:29:00,29.8,17.6,30.26,SE,142,6.0,8.0,60,0.00,CLR,,0.00,WeatherDisplay:10.37,2013-02-22 19:29:00,
2013-02-22 14:39:00,29.7,17.5,30.26,SE,130,5.0,8.0,60,0.00,CLR,,0.00,WeatherDisplay:10.37,2013-02-22 19:39:00,
2013-02-22 14:49:00,29.7,17.8,30.26,SE,126,1.0,9.0,61,0.00,CLR,,0.00,WeatherDisplay:10.37,2013-02-22 19:49:00,
2013-02-22 14:59:00,29.7,18.2,30.26,ESE,119,3.0,8.0,62,0.00,CLR,,0.00,WeatherDisplay:10.37,2013-02-22 19:59:00,
2013-02-22 15:09:00,29.7,18.2,30.26,ESE,120,6.0,11.0,62,0.00,CLR,,0.00,WeatherDisplay:10.37,2013-02-22 20:09:00,
2013-02-22 15:19:00,29.8,18.4,30.26,SE,132,5.0,8.0,62,0.00,CLR,,0.00,WeatherDisplay:10.37,2013-02-22 20:19:00,
2013-02-22 15:29:00,29.8,18.4,30.26,SE,126,6.0,12.0,62,0.00,CLR,,0.00,WeatherDisplay:10.37,2013-02-22 20:29:00,
2013-02-22 15:39:00,30.0,18.9,30.26,SE,124,3.0,6.0,63,0.00,CLR,,0.00,WeatherDisplay:10.37,2013-02-22 20:39:00,
2013-02-22 15:49:00,30.0,18.9,30.26,ESE,122,5.0,8.0,63,0.00,CLR,,0.00,WeatherDisplay:10.37,2013-02-22 20:49:00,
2013-02-22 15:59:00,30.0,19.3,30.26,SE,130,6.0,9.0,64,0.00,CLR,,0.00,WeatherDisplay:10.37,2013-02-22 20:59:00,
2013-02-22 16:09:00,30.0,19.3,30.26,ESE,123,7.0,10.0,64,0.00,CLR,,0.00,WeatherDisplay:10.37,2013-02-22 21:09:00,
2013-02-22 16:19:00,30.2,19.8,30.26,SE,128,5.0,9.0,65,0.00,CLR,,0.00,WeatherDisplay:10.37,2013-02-22 21:19:00,
2013-02-22 16:29:00,30.0,20.0,30.26,ESE,121,5.0,9.0,66,0.00,CLR,,0.00,WeatherDisplay:10.37,2013-02-22 21:29:00,
2013-02-22 16:39:00,30.0,20.0,30.23,ESE,120,2.0,7.0,66,0.00,CLR,,0.00,WeatherDisplay:10.37,2013-02-22 21:39:00,
2013-02-22 16:49:00,30.2,20.2,30.23,SE,139,5.0,8.0,66,0.00,CLR,,0.00,WeatherDisplay:10.37,2013-02-22 21:49:00,
2013-02-22 16:59:00,30.2,20.2,30.23,SE,138,7.0,8.0,66,0.00,CLR,,0.00,WeatherDisplay:10.37,2013-02-22 21:59:00,
2013-02-22 17:09:00,30.2,20.2,30.23,SE,124,3.0,8.0,66,0.00,CLR,,0.00,WeatherDisplay:10.37,2013-02-22 22:09:00,
2013-02-22 17:19:00,30.2,20.2,30.23,SE,130,7.0,11.0,66,0.00,CLR,,0.00,WeatherDisplay:10.37,2013-02-22 22:19:00,
2013-02-22 17:29:00,30.4,20.0,30.23,SE,129,6.0,9.0,65,0.00,CLR,,0.00,WeatherDisplay:10.37,2013-02-22 22:29:00,
2013-02-22 17:39:00,30.4,20.0,30.23,SE,133,6.0,8.0,65,0.00,CLR,,0.00,WeatherDisplay:10.37,2013-02-22 22:39:00,
2013-02-22 17:49:00,30.4,20.4,30.23,SE,127,8.0,11.0,66,0.00,CLR,,0.00,WeatherDisplay:10.37,2013-02-22 22:49:00,
2013-02-22 17:59:00,30.4,20.0,30.23,SE,126,5.0,10.0,65,0.00,CLR,,0.00,WeatherDisplay:10.37,2013-02-22 22:59:00,
2013-02-22 18:09:00,30.4,20.0,30.23,SE,126,8.0,12.0,65,0.00,CLR,,0.00,WeatherDisplay:10.37,2013-02-22 23:09:00,
2013-02-22 18:19:00,30.4,20.4,30.23,ESE,121,8.0,13.0,66,0.00,CLR,,0.00,WeatherDisplay:10.37,2013-02-22 23:19:00,
2013-02-22 18:29:00,30.4,20.4,30.23,ESE,117,8.0,12.0,66,0.00,CLR,,0.00,WeatherDisplay:10.37,2013-02-22 23:29:00,
2013-02-22 18:39:00,30.4,20.4,30.23,ESE,114,7.0,13.0,66,0.00,CLR,,0.00,WeatherDisplay:10.37,2013-02-22 23:39:00,
2013-02-22 18:49:00,30.4,20.4,30.23,ESE,117,7.0,14.0,66,0.00,CLR,,0.00,WeatherDisplay:10.37,2013-02-22 23:49:00,
2013-02-22 18:59:00,30.4,20.4,30.23,ESE,118,8.0,13.0,66,0.00,CLR,,0.00,WeatherDisplay:10.37,2013-02-22 23:59:00,
2013-02-22 19:09:00,30.4,20.0,30.20,SE,124,7.0,11.0,65,0.00,CLR,,0.00,WeatherDisplay:10.37,2013-02-23 00:09:00,
2013-02-22 19:19:00,30.6,20.2,30.20,SE,135,6.0,11.0,65,0.00,CLR,,0.00,WeatherDisplay:10.37,2013-02-23 00:19:00,
2013-02-22 19:29:00,30.6,19.8,30.23,SE,130,7.0,14.0,64,0.00,CLR,,0.00,WeatherDisplay:10.37,2013-02-23 00:29:00,
2013-02-22 19:39:00,30.6,19.8,30.23,SSE,147,3.0,15.0,64,0.00,CLR,,0.00,WeatherDisplay:10.37,2013-02-23 00:39:00,
2013-02-22 19:49:00,30.7,19.6,30.23,SSE,150,6.0,10.0,63,0.00,CLR,,0.00,WeatherDisplay:10.37,2013-02-23 00:49:00,
2013-02-22 19:59:00,30.7,20.0,30.23,ESE,113,8.0,11.0,64,0.00,CLR,,0.00,WeatherDisplay:10.37,2013-02-23 00:59:00,
2013-02-22 20:09:00,30.9,20.2,30.23,SE,127,8.0,12.0,64,0.00,CLR,,0.00,WeatherDisplay:10.37,2013-02-23 01:09:00,
2013-02-22 20:19:00,30.9,20.9,30.23,ESE,110,8.0,13.0,66,0.00,CLR,,0.00,WeatherDisplay:10.37,2013-02-23 01:19:00,
2013-02-22 20:29:00,30.9,21.2,30.23,ESE,112,7.0,12.0,67,0.00,CLR,,0.00,WeatherDisplay:10.37,2013-02-23 01:29:00,
2013-02-22 20:39:00,30.9,21.6,30.23,ESE,120,7.0,13.0,68,0.00,CLR,,0.00,WeatherDisplay:10.37,2013-02-23 01:39:00,
2013-02-22 20:49:00,30.9,21.9,30.23,ESE,110,7.0,11.0,69,0.00,CLR,,0.00,WeatherDisplay:10.37,2013-02-23 01:49:00,
2013-02-22 20:59:00,30.9,21.9,30.23,ESE,112,7.0,11.0,69,0.00,CLR,,0.00,WeatherDisplay:10.37,2013-02-23 01:59:00,
2013-02-22 21:09:00,30.7,22.1,30.20,ESE,106,8.0,13.0,70,0.00,CLR,,0.00,WeatherDisplay:10.37,2013-02-23 02:09:00,
2013-02-22 21:19:00,30.7,22.4,30.20,ESE,107,8.0,11.0,71,0.00,CLR,,0.00,WeatherDisplay:10.37,2013-02-23 02:19:00,
2013-02-22 21:29:00,30.7,22.4,30.23,ESE,104,8.0,12.0,71,0.00,CLR,,0.00,WeatherDisplay:10.37,2013-02-23 02:29:00,
2013-02-22 21:39:00,30.7,22.8,30.23,ESE,104,8.0,12.0,72,0.00,CLR,,0.00,WeatherDisplay:10.37,2013-02-23 02:39:00,
2013-02-22 21:49:00,30.7,22.8,30.23,ESE,109,7.0,13.0,72,0.00,CLR,,0.00,WeatherDisplay:10.37,2013-02-23 02:49:00,
2013-02-22 21:59:00,30.7,22.8,30.20,ESE,105,8.0,13.0,72,0.00,CLR,,0.00,WeatherDisplay:10.37,2013-02-23 02:59:00,
2013-02-22 22:09:00,30.7,23.1,30.20,ESE,116,7.0,12.0,73,0.00,CLR,,0.00,WeatherDisplay:10.37,2013-02-23 03:09:00,
2013-02-22 22:19:00,30.7,23.1,30.20,ESE,106,9.0,13.0,73,0.00,CLR,,0.00,WeatherDisplay:10.37,2013-02-23 03:19:00,
2013-02-22 22:29:00,30.7,23.1,30.20,ESE,114,7.0,12.0,73,0.00,CLR,,0.00,WeatherDisplay:10.37,2013-02-23 03:29:00,
2013-02-22 22:39:00,30.7,23.1,30.20,SE,127,7.0,11.0,73,0.00,CLR,,0.00,WeatherDisplay:10.37,2013-02-23 03:39:00,
2013-02-22 22:49:00,30.9,23.6,30.20,SE,137,6.0,13.0,74,0.00,CLR,,0.00,WeatherDisplay:10.37,2013-02-23 03:49:00,
2013-02-22 22:59:00,30.9,23.6,30.20,SSE,149,5.0,12.0,74,0.00,CLR,,0.00,WeatherDisplay:10.37,2013-02-23 03:59:00,
2013-02-22 23:09:00,30.9,23.6,30.23,SSW,198,3.0,8.0,74,0.00,CLR,,0.00,WeatherDisplay:10.37,2013-02-23 04:09:00,
2013-02-22 23:19:00,31.1,23.8,30.23,SE,135,7.0,11.0,74,0.00,CLR,,0.00,WeatherDisplay:10.37,2013-02-23 04:19:00,
2013-02-22 23:29:00,31.1,23.8,30.20,ESE,117,8.0,12.0,74,0.00,CLR,,0.00,WeatherDisplay:10.37,2013-02-23 04:29:00,
2013-02-22 23:39:00,31.1,23.8,30.20,ESE,116,6.0,13.0,74,0.00,CLR,,0.00,WeatherDisplay:10.37,2013-02-23 04:39:00,
2013-02-22 23:49:00,31.1,23.8,30.20,ESE,120,7.0,11.0,74,0.00,CLR,,0.00,WeatherDisplay:10.37,2013-02-23 04:49:00,
2013-02-22 23:59:00,31.1,23.8,30.20,ESE,111,7.0,12.0,74,0.00,CLR,,0.00,WeatherDisplay:10.37,2013-02-23 04:59:00,